Location: Ravensburg
(47.7866°N, 9.6124°E)
Time: 19:50:14
(UTC+01:00)

ISS - Pass Details

Date: 17 November 2025
Orbit: 416 x 421 km, 51.6° (Epoch: 05 December)

Event Time Altitude Azimuth Distance (km) Brightness Sun altitude
Rises 19:45:30 0° 274° (W) 2,366 1.2 -30.6°
Reaches altitude 10° 19:47:40 10° 281° (WNW) 1,501 -0.1 -30.9°
Enters shadow 19:48:06 13° 284° (WNW) 1,339 -0.4 -31.0°
